Tracking 17925 objects as of 19-February-2017
HD Live streaming from Space Station
objects crossing your sky now

DELTA 2 DEB

Track DELTA 2 DEB now!
10-day predictions


NORAD ID: 27765
Int'l Code: 2000-040D
Perigee: 177.3 km
Apogee: 3,093.1 km
Inclination: 38.8 °
Period: 118.8 minutes
Semi major axis: 8006 km
RCS: 0.0144 m2 (small)
Launch date: July 16, 2000
Source: United States (US)
Launch site: AIR FORCE EASTERN TEST RANGE (AFETR)

Note: This is SATELLITE DEBRIS
Your satellite tracking list
Your tracking list is empty





NASA's NSSDC Master Catalog

Two Line Element Set (TLE):
1 27765U 00040D   17048.99532055  .00141253  86378-6  24594-3 0  9990
2 27765  38.8388 285.4453 1820996 267.3096  71.8978 12.11887274414264
Source of the keplerian elements: AFSPC